AO-07 1 07530U 74089B 22069.78750979 -.00000024 00000-0 13731-3 0 9999 2 07530 101.8950 49.3831 0011957 230.3890 197.9947 12.53653308165348 UO-11 1 14781U 84021B 22069.57544940 .00000702 00000-0 91436-4 0 9999 2 14781 97.6118 61.5635 0006953 290.9498 69.0972 14.83478411 46380 LO-19 1 20442U 90005G 22069.44375131 .00000113 00000-0 57909-4 0 9992 2 20442 98.7816 32.8606 0012853 98.6713 261.5927 14.33028192678928 HUBBLE 1 20580U 90037B 22069.52088720 .00002040 00000-0 11117-3 0 9995 2 20580 28.4699 104.1170 0002748 55.0602 97.2995 15.10110307551245 MET-2/21 1 22782U 93055A 22069.60017022 .00000042 00000-0 24313-4 0 9993 2 22782 82.5452 92.7004 0020976 264.7173 211.7784 13.83848186440609 AO-27 1 22825U 93061C 22069.65860734 .00000046 00000-0 35619-4 0 9994 2 22825 98.8993 98.5502 0008092 346.7391 13.3577 14.30148957484305 IO-26 1 22826U 93061D 22069.56566448 .00000054 00000-0 38674-4 0 9993 2 22826 98.8936 98.3413 0008391 332.7913 27.2828 14.30491588484279 FO-29 1 24278U 96046B 22069.57145148 -.00000007 00000-0 28235-4 0 9994 2 24278 98.5301 106.8076 0350401 179.6863 180.4561 13.53111252262236 NOAA-15 1 25338U 98030A 22069.77443112 .00000083 00000-0 53067-4 0 9995 2 25338 98.6566 100.5454 0009752 220.3754 139.6703 14.26096050239206 GO-32 1 25397U 98043D 22069.47897140 .00000046 00000-0 39929-4 0 9995 2 25397 98.8064 19.7486 0002123 58.4643 301.6743 14.23735693229343 ISS 1 25544U 98067A 22069.81291447 .00006491 00000-0 12307-3 0 9991 2 25544 51.6429 103.7735 0004879 240.4138 284.0124 15.49654444329927 NO-44 1 26931U 01043C 22069.39341837 .00000068 00000-0 57699-4 0 9990 2 26931 67.0519 314.0817 0007555 277.1911 82.8331 14.30668803 67237 SO-50 1 27607U 02058C 22069.60611157 .00000465 00000-0 85281-4 0 9996 2 27607 64.5535 244.3409 0071594 314.1645 45.3585 14.75943432 33781 CO-55 1 27844U 03031E 22069.59556316 .00000209 00000-0 11357-3 0 9992 2 27844 98.6818 78.7645 0010434 34.2319 325.9530 14.22391932969814 CO-57 1 27848U 03031J 22069.52805049 .00000168 00000-0 95952-4 0 9997 2 27848 98.6867 79.2357 0010536 47.4828 312.7238 14.21957123969652 RS-22 1 27939U 03042A 22069.65216143 .00000817 00000-0 15387-3 0 9999 2 27939 98.1745 210.5013 0013612 155.2252 204.9613 14.67169680986559 NOAA-18 1 28654U 05018A 22069.75972767 .00000149 00000-0 10451-3 0 9996 2 28654 98.9591 140.2392 0013417 248.3184 111.6559 14.12696954866134 CO-58 1 28895U 05043F 22069.29536311 .00000820 00000-0 16481-3 0 9996 2 28895 98.0892 202.3114 0017950 93.8417 266.4838 14.64127764872902 Falconsat-3 1 30776U 07006E 22069.44699095 .00025530 00000-0 50023-3 0 9999 2 30776 35.4319 185.3829 0001934 169.9466 190.1302 15.46435154834216 CO-65 1 32785U 08021C 22069.46834359 .00001718 00000-0 18741-3 0 9998 2 32785 97.6466 43.5498 0012224 195.1881 164.8971 14.89140503751758 AAUSAT2 1 32788U 08021F 22069.51115485 .00004301 00000-0 38302-3 0 9995 2 32788 97.5280 58.4381 0013472 95.5654 264.7105 14.96478946753638 DO-64 1 32789U 08021G 22069.57569908 .00008600 00000-0 51497-3 0 9991 2 32789 97.3512 99.5816 0009549 310.6683 49.3717 15.11205697756983 CO-66 1 32791U 08021J 22069.67823909 .00002615 00000-0 26289-3 0 9990 2 32791 97.6025 49.3616 0013647 152.8558 207.3378 14.92007864752541 RS-30 1 32953U 08025A 22069.54602517 .00000021 00000-0 80971-4 0 9998 2 32953 82.4987 245.4244 0020000 115.6350 244.6796 12.43107522626043 PRISM 1 33493U 09002B 22069.50354060 .00004373 00000-0 36811-3 0 9994 2 33493 98.2259 50.5493 0016490 119.3220 240.9651 14.98709233714154 NOAA-19 1 33591U 09005A 22069.82076985 .00000096 00000-0 77223-4 0 9999 2 33591 99.1612 101.8277 0014845 104.6651 255.6167 14.12536217674520 SRMSAT 1 37841U 11058D 22069.51491528 .00000377 00000-0 61856-4 0 9999 2 37841 19.9714 132.9510 0011868 337.9900 49.9990 14.10730095537254 HRBE 1 37855U 11061F 22069.77535961 .00006655 00000-0 30941-3 0 9991 2 37855 101.7093 136.9943 0160054 357.4574 2.5810 15.09949834566800 RS-40 1 38735U 12041C 22069.54061997 .00000039 00000-0 21405-3 0 9991 2 38735 82.4807 327.1827 0016207 225.7042 134.2701 12.42584487436236 ZACUBE-1 1 39417U 13066B 22069.53017931 .00001975 00000-0 24864-3 0 9997 2 39417 97.6260 45.5849 0058565 10.6102 349.6333 14.81916273448470 Delfi-N3xt 1 39428U 13066N 22069.41075585 .00001761 00000-0 28145-3 0 9994 2 39428 97.8074 8.1177 0117235 234.1128 124.9150 14.68589520443996 GOMX-1 1 39430U 13066Q 22069.70008424 .00001466 00000-0 27044-3 0 9996 2 39430 97.8152 342.5296 0150196 356.7605 3.2617 14.59907748441886 LO-74 1 39440U 13066AA 22069.46679905 .00001483 00000-0 20836-3 0 9999 2 39440 97.7144 31.2817 0080896 92.5008 268.5467 14.76603795446876 AO-73 1 39444U 13066AE 22069.81840076 .00002512 00000-0 30744-3 0 9994 2 39444 97.6147 48.2550 0057186 358.5605 1.5436 14.82911415447496 SPROUT 1 39770U 14029E 22069.34510768 .00004736 00000-0 50153-3 0 9992 2 39770 97.9304 185.8476 0009376 56.3744 303.8496 14.89595333422903 DTUSAT-2 1 40030U 14033W 22069.77444205 .00001804 00000-0 19541-3 0 9996 2 40030 97.9316 2.2208 0012486 25.6781 334.5054 14.89456178419469 EO-80 1 40032U 14033Y 22069.54302986 .00002054 00000-0 22177-3 0 9999 2 40032 97.9320 2.0003 0012433 27.3671 332.8198 14.89419361418895 HODOYOSHI-1 1 40299U 14070B 22069.68396374 .00004731 00000-0 18729-3 0 9996 2 40299 97.2544 140.7456 0013777 123.0940 355.6688 15.25821691407998 FIREBIRD FU3 1 40377U 15003B 22069.54288329 .00010311 00000-0 33928-3 0 9994 2 40377 99.1136 272.6388 0108408 359.7587 0.3575 15.26209696393318 FIREBIRD FU4 1 40378U 15003C 22069.50850186 .00010947 00000-0 35908-3 0 9992 2 40378 99.1140 272.7863 0108391 359.5607 0.5513 15.26284956393311 GRIFEX 1 40379U 15003D 22069.76798361 .00007272 00000-0 27340-3 0 9995 2 40379 99.1192 260.0122 0121691 37.7509 323.2181 15.20842567392622 XW-2A 1 40903U 15049E 22069.64803115 .00016402 00000-0 30131-3 0 9996 2 40903 97.1966 128.2611 0012757 117.8085 2.8101 15.49219663363942 XW-2C 1 40906U 15049H 22069.62060041 .00005077 00000-0 25333-3 0 9994 2 40906 97.4948 73.9092 0013857 350.9591 104.0684 15.17880645357922 XW-2D 1 40907U 15049J 22069.62244661 .00005878 00000-0 28888-3 0 9994 2 40907 97.4938 73.8206 0012947 347.2771 151.3564 15.18358219357960 LILACSAT-2 1 40908U 15049K 22069.64890192 .00002976 00000-0 16206-3 0 9990 2 40908 97.5167 71.2683 0015739 5.6623 101.2906 15.15105020357523 XW-2E 1 40909U 15049L 22069.62197634 .00008688 00000-0 38891-3 0 9990 2 40909 97.4691 78.1683 0011473 329.7282 126.1565 15.21458901358370 XW-2F 1 40910U 15049M 22069.64717087 .00008685 00000-0 39445-3 0 9997 2 40910 97.4759 77.3047 0012764 328.9676 124.7069 15.20948357358151 XW-2B 1 40911U 15049N 22069.63263713 .00005697 00000-0 28083-3 0 9995 2 40911 97.4932 74.4616 0013140 348.4400 105.7498 15.18260110357858 DCBB 1 40912U 15049P 22069.64449078 .00009656 00000-0 40371-3 0 9990 2 40912 97.4427 81.6677 0011799 293.5112 161.4361 15.23746007358694 TW-1A 1 40928U 15051D 22069.63871616 .00027828 00000-0 45964-3 0 9990 2 40928 97.0522 93.6556 0010033 44.7904 103.4114 15.52159148362870 IO-86 1 40931U 15052B 22069.71425556 .00001025 00000-0 53571-4 0 9997 2 40931 6.0010 153.3872 0012916 215.0565 144.8961 14.76745714348721 ATHENOXAT-1 1 41168U 15077C 22069.42813464 .00012857 00000-0 57442-3 0 9999 2 41168 14.9832 102.8334 0010332 286.9906 110.0124 15.18157139345225 ChubuSat-2 1 41338U 16012B 22069.32498286 .00001760 00000-0 12799-3 0 9995 2 41338 31.0028 294.8648 0013683 250.1865 109.7296 15.00941595332577 ChubuSat-3 1 41339U 16012C 22069.65661683 .00001636 00000-0 11822-3 0 9993 2 41339 31.0118 289.7413 0013466 262.2478 97.6629 15.01056231332620 Horyu-4 1 41340U 16012D 22069.54887542 .00002727 00000-0 19340-3 0 9992 2 41340 31.0041 270.4149 0013813 297.1621 62.7607 15.02576890332834 e-st@r-II 1 41459U 16025D 22069.50195554 .00012160 00000-0 56034-3 0 9991 2 41459 98.1727 227.5857 0152273 244.5927 113.9475 15.10626253322545 AAUSAT4 1 41460U 16025E 22069.43276590 .00021184 00000-0 89708-3 0 9995 2 41460 98.1700 232.9103 0136342 223.7629 135.2711 15.15050929322927 LO-87 1 41557U 16033B 22069.77915226 .00010839 00000-0 35263-3 0 9996 2 41557 97.3857 167.5417 0012028 15.9899 103.1935 15.31986009322267 NuSat2 1 41558U 16033C 22069.74495280 .00010061 00000-0 30696-3 0 9999 2 41558 97.4026 172.6647 0011187 7.5061 140.2662 15.34069689322507 Lapan A3 1 41603U 16040E 22069.72906446 .00001174 00000-0 56847-4 0 9999 2 41603 97.2208 111.0020 0014203 141.7947 350.9906 15.20351729317033 Pratham 1 41783U 16059A 22069.34553491 .00000345 00000-0 75243-4 0 9994 2 41783 97.9283 114.8055 0034648 125.8317 234.6113 14.63251393291132 TY-1 1 41844U 16066D 22069.61952422 .00010955 00000-0 40553-3 0 9990 2 41844 97.3958 82.2387 0011740 280.6213 222.1565 15.27778433296501 CAS-2T 1 41847U 16066G 22069.43394557 .00000955 00000-0 15223-3 0 9997 2 41847 98.5635 134.1706 0365217 145.8660 216.6605 14.38402593280115 EO-88 1 42017U 17008BX 22069.14604118 .00010421 00000-0 34815-3 0 9996 2 42017 97.2814 136.8965 0004431 232.0212 128.0629 15.31193535281868 CAS-4B 1 42759U 17034B 22069.65492515 .00003576 00000-0 22313-3 0 9993 2 42759 43.0163 156.9220 0007916 17.8640 99.5133 15.11032376261402 CAS-4A 1 42761U 17034D 22069.56724874 .00003968 00000-0 24551-3 0 9993 2 42761 43.0168 156.2639 0008476 19.1588 113.5397 15.11122882261394 NIUSat 1 42766U 17036B 22069.66922034 .00006765 00000-0 27771-3 0 9994 2 42766 97.2169 111.0810 0013037 321.9301 38.1015 15.24454315261748 Aalto 1 1 42775U 17036L 22069.80342853 .00005589 00000-0 23248-3 0 9993 2 42775 97.2127 111.2682 0011735 321.3961 38.6437 15.24098523261748 URSA MAIOR 1 42776U 17036M 22069.68398523 .00005595 00000-0 22996-3 0 9991 2 42776 97.2141 111.7943 0011459 320.6520 39.3884 15.24506194261759 Max Valier Sat 1 42778U 17036P 22069.70680156 .00005572 00000-0 22439-3 0 9999 2 42778 97.2208 114.2509 0009998 322.2835 37.7702 15.25210385261849 Pegasus 1 42784U 17036V 22069.07825495 .00007348 00000-0 28360-3 0 9995 2 42784 97.2147 114.3203 0009642 327.5754 32.4891 15.26528260261840 NUDATSat 1 42787U 17036Y 22069.58286106 .00014121 00000-0 49200-3 0 9997 2 42787 97.2186 118.2812 0008488 315.5518 44.5041 15.29728094261961 SUCHAI 1 1 42788U 17036Z 22069.36770246 .00009502 00000-0 35238-3 0 9990 2 42788 97.2155 116.0011 0008901 321.5307 38.5297 15.27778110262046 SKCUBE 1 42789U 17036AA 22069.58718292 .00008837 00000-0 33259-3 0 9999 2 42789 97.2150 115.7731 0008917 321.8095 38.2512 15.27308750261978 VZLUSAT 1 1 42790U 17036AB 22069.58437177 .00012485 00000-0 43631-3 0 9990 2 42790 97.2181 118.2642 0007804 313.9967 46.0630 15.29663422262114 VENTA 1 1 42791U 17036AC 22069.59196306 .00008206 00000-0 31185-3 0 9995 2 42791 97.2151 115.7291 0008589 322.9707 37.0939 15.27011904261961 Robusta 1B 1 42792U 17036AD 22069.63716280 .00009227 00000-0 34321-3 0 9999 2 42792 97.2151 116.3203 0008475 321.9050 38.1590 15.27689954262025 D-SAT 1 42794U 17036AF 22069.58424398 .00002739 00000-0 23634-3 0 9997 2 42794 97.4552 80.2360 0125801 56.6244 304.6940 14.92089450256734 TechnoSat 1 42829U 17042E 22069.61216362 .00001124 00000-0 11707-3 0 9992 2 42829 97.4346 289.4549 0013675 344.3380 15.7415 14.91572916253354 QIKCOM-1 1 42983U 98067NF 22069.05264301 .00049054 00000-0 28256-3 0 9994 2 42983 51.6357 341.7176 0001980 221.2765 138.8086 15.78187267249154 AO-91 1 43017U 17073E 22069.45775128 .00002618 00000-0 20219-3 0 9995 2 43017 97.6866 327.6952 0252401 151.4760 210.0536 14.80495920232467 PICSAT 1 43132U 18004X 22069.73379003 .00010096 00000-0 36656-3 0 9992 2 43132 97.3800 146.8368 0007912 357.7008 2.4194 15.28472579231317 AO-92 1 43137U 18004AC 22069.75416341 .00007633 00000-0 28831-3 0 9995 2 43137 97.3771 145.9216 0007938 2.2052 357.9221 15.27252720231266 TianYi 2 1 43155U 18008A 22069.66873594 .00005875 00000-0 32738-3 0 9993 2 43155 97.3660 131.2850 0018022 124.7785 352.8963 15.13832948228325 Zhou Enlai 1 43156U 18008B 22069.66801516 .00005741 00000-0 32322-3 0 9990 2 43156 97.3707 131.1373 0015215 124.3958 0.7570 15.13516154228259 TianYi 6 1 43158U 18008D 22069.59534556 .00005270 00000-0 30360-3 0 9998 2 43158 97.3662 129.2309 0014203 124.3658 18.3901 15.12738484228154 S-Net D 1 43186U 18014G 22069.74893147 .00002025 00000-0 17868-3 0 9990 2 43186 97.6649 337.3709 0009149 268.6379 91.3795 14.97475812224146 S-Net B 1 43187U 18014H 22069.74897206 .00002008 00000-0 17729-3 0 9998 2 43187 97.6646 337.3269 0009147 268.5152 91.5022 14.97474647224141 S-Net A 1 43188U 18014J 22069.48192300 .00002030 00000-0 17919-3 0 9999 2 43188 97.6650 337.1227 0009146 269.7251 90.2923 14.97472985224106 S-Net C 1 43189U 18014K 22069.28204249 .00002021 00000-0 17842-3 0 9999 2 43189 97.6645 336.8588 0009122 270.2741 89.7435 14.97470956222624 FMN 1 1 43192U 18015A 22069.58035051 .00021613 00000-0 68270-3 0 9999 2 43192 97.5193 212.5414 0012482 23.9873 106.8204 15.32769593228275 Shaonian Xing 1 43199U 18015H 22069.58953016 .00014397 00000-0 48530-3 0 9994 2 43199 97.4970 208.5087 0014901 34.6557 95.9637 15.30733751228308 SurfSat 1 43614U 18070B 22069.82182337 .00027810 00000-0 53503-3 0 9994 2 43614 93.0236 57.1386 0015005 57.6493 302.6216 15.47699344195779 CP-7 DAVE 1 43615U 18070C 22069.45263469 .00023845 00000-0 46853-3 0 9994 2 43615 93.0236 56.8892 0015346 58.9883 301.2881 15.47098296195696 ELFIN-B 1 43616U 18070D 22069.71543265 .00040653 00000-0 63422-3 0 9996 2 43616 93.0171 57.7158 0014184 54.0132 306.2443 15.53588644195960 ELFIN-A 1 43617U 18070E 22069.68596018 .00043724 00000-0 65767-3 0 9993 2 43617 93.0245 58.8575 0013111 52.3361 307.9089 15.54601560195993 CubeBel-1 1 43666U 18083E 22069.72642522 .00008423 00000-0 37953-3 0 9991 2 43666 97.4320 99.6157 0012741 325.4707 127.4362 15.21227735186467 Changshagaoxin 1 43669U 18083H 22069.74839990 .00007300 00000-0 34338-3 0 9990 2 43669 97.4266 95.9146 0008902 324.9871 162.8247 15.19827351186301 Ten-Koh 1 43677U 18084G 22069.62224153 .00001254 00000-0 13333-3 0 9990 2 43677 97.9474 198.8966 0014861 234.6136 125.3694 14.90768787182953 PO-101 1 43678U 18084H 22069.59957595 .00001242 00000-0 12839-3 0 9997 2 43678 97.9524 201.8221 0008507 248.7834 111.2482 14.91955733183118 IRVINE 01 1 43693U 18088D 22069.59134282 .00026139 00000-0 86820-3 0 9991 2 43693 85.0348 17.4906 0017583 113.5561 246.7535 15.30925256185068 QO-100 1 43700U 18090A 22069.55475981 .00000142 00000-0 00000+0 0 9991 2 43700 0.0153 235.4116 0002358 136.5174 21.7851 1.00273883 12281 Reaktor Hello World 1 43743U 18096AA 22069.22387224 .00009479 00000-0 31483-3 0 9995 2 43743 97.3593 149.6878 0017074 56.7213 303.5661 15.31281367182760 MinXSS-2 1 43758U 18099A 22069.72529956 .00002370 00000-0 21228-3 0 9998 2 43758 97.6339 140.0261 0014408 232.8635 127.1271 14.96677967178331 AO-95 1 43770U 18099N 22069.74200110 .00002589 00000-0 23637-3 0 9990 2 43770 97.6324 138.6461 0012866 243.1986 116.7919 14.95859531178256 RANGE-B 1 43772U 18099Q 22069.70570875 .00002018 00000-0 18322-3 0 9998 2 43772 97.6418 140.0703 0013005 230.3108 129.6968 14.96321829178261 RANGE-A 1 43773U 18099R 22069.44173212 .00001268 00000-0 11913-3 0 9999 2 43773 97.6247 137.3783 0012391 231.1976 128.8139 14.95606974178197 MOVE-II 1 43780U 18099Y 22069.44015114 .00002620 00000-0 23366-3 0 9991 2 43780 97.6347 139.2638 0012302 240.6664 119.3329 14.96785114178244 SNUSat 2 1 43782U 18099AA 22069.73449919 .00002446 00000-0 22258-3 0 9994 2 43782 97.6319 139.0709 0011480 226.5121 133.5147 14.96057442178274 SnugLite 1 43784U 18099AC 22069.71763652 .00001976 00000-0 17988-3 0 9998 2 43784 97.6276 138.7153 0013921 236.5424 123.4467 14.96225719178295 ITASat 1 1 43786U 18099AE 22069.41310955 .00002229 00000-0 20310-3 0 9996 2 43786 97.6349 139.1853 0013658 237.1161 122.8747 14.96082651178247 EAGLET 1 1 43790U 18099AJ 22069.72415160 .00001319 00000-0 12148-3 0 9998 2 43790 97.6331 139.9985 0012182 239.5717 120.4302 14.96349360178021 ESEO 1 43792U 18099AL 22069.42666652 .00000502 00000-0 49801-4 0 9991 2 43792 97.6297 139.0545 0011874 238.3496 121.6567 14.95967806178021 CSIM 1 43793U 18099AM 22069.72515943 .00003120 00000-0 27271-3 0 9996 2 43793 97.6344 140.3252 0012145 229.3438 130.6729 14.97438570178105 Astrocast 0.1 1 43798U 18099AS 22069.15300540 .00002218 00000-0 19842-3 0 9995 2 43798 97.6354 139.7856 0011171 216.6491 143.3968 14.96817833178253 JO-97 1 43803U 18099AX 22069.72669795 .00002370 00000-0 21360-3 0 9992 2 43803 97.6297 139.2296 0013856 234.8406 125.1518 14.96439945178308 Suomi 100 1 43804U 18099AY 22069.47187436 .00002755 00000-0 24785-3 0 9993 2 43804 97.6302 138.9202 0013643 235.6025 124.3907 14.96383151178275 Al Farabi 2 1 43805U 18099AZ 22069.75763161 .00003003 00000-0 26702-3 0 9998 2 43805 97.6333 139.5865 0013496 233.7406 126.2552 14.96772244178339 CHOMPTT 1 43855U 18104G 22069.66281807 .00006185 00000-0 24050-3 0 9990 2 43855 85.0341 116.9290 0014283 238.0028 121.9829 15.25721855179658 ISAT 1 43879U 18111D 22069.71455972 .00001804 00000-0 16045-3 0 9994 2 43879 97.6723 337.1253 0011605 295.5813 64.4210 14.97295388172875 UWE-4 1 43880U 18111E 22069.46244551 .00002191 00000-0 19286-3 0 9997 2 43880 97.6739 337.5155 0011056 295.9214 64.0868 14.97489229174885 Sparrow 1 43881U 18111F 22069.48778301 .00003251 00000-0 28303-3 0 9993 2 43881 97.6756 337.7327 0010356 293.7795 66.2341 14.97587152174895 Lume 1 1 43908U 18111AJ 22069.44859355 .00007870 00000-0 28661-3 0 9996 2 43908 97.2051 320.4405 0021234 68.8041 291.5466 15.28253993178261 FO-98 1 43933U 19003B 22069.58181826 .00139020 00000-0 26666-2 0 9996 2 43933 97.1506 107.9498 0011453 151.6899 208.4976 15.47416199174884 FO-99 1 43937U 19003F 22069.63483972 .00009130 00000-0 33315-3 0 9991 2 43937 97.1448 106.9433 0023043 143.4689 216.8129 15.28098381174875 MYSat 1 1 44045U 18092F 22069.58944346 .00030782 00000-0 61606-3 0 9991 2 44045 51.6338 202.8566 0007854 92.3625 267.8262 15.46460781172538 AstroCast 0.2 1 44083U 19018F 22069.72593439 .00008473 00000-0 34337-3 0 9994 2 44083 97.3363 130.5611 0013650 115.2441 245.0213 15.24811652163431 AISTechSat 3 1 44103U 19018AB 22069.44939163 .00006951 00000-0 27419-3 0 9996 2 44103 97.3226 130.7191 0014035 122.7493 237.5100 15.25774304163541 AISat 1 1 44104U 19018AC 22069.18750983 .00006995 00000-0 20636-3 0 9991 2 44104 97.4000 152.0526 0055529 127.5170 233.1139 15.33762577164374 Prox-1 1 44339U 19036A 22069.75113252 .00002987 00000-0 64123-3 0 9992 2 44339 24.0004 96.2366 0010317 210.7704 149.2183 14.54324570144057 Oculus-ASR 1 44348U 19036K 22069.50421670 .00045511 00000-0 52157-3 0 9995 2 44348 28.5084 149.3630 0278647 289.8811 67.1963 15.25792848149365 Armadillo 1 44352U 19036P 22069.39427398 .00096358 -41193-5 83254-3 0 9991 2 44352 28.5256 98.7041 0212066 9.8259 350.6403 15.43912259149812 NO-104 1 44354U 19036R 22069.48196235 .00054509 -57210-5 58703-3 0 9996 2 44354 28.5252 138.1782 0270970 305.1675 52.3819 15.28060106149469 NO-103 1 44355U 19036S 22069.17839184 .00192850 39632-5 88694-3 0 9991 2 44355 28.5214 27.9063 0125635 125.8790 235.3555 15.71211913150540 Move-IIb 1 44398U 19038N 22069.83188128 .00009374 00000-0 48789-3 0 9999 2 44398 97.6198 38.5403 0024962 108.3700 252.0251 15.15978011148081 SONATE 1 44400U 19038Q 22069.59011772 .00003836 00000-0 21617-3 0 9994 2 44400 97.6275 37.8050 0025762 110.9787 249.4200 15.13529761147977 BeeSat 9 1 44412U 19038AC 22069.44037399 .00006708 00000-0 36079-3 0 9993 2 44412 97.6255 38.2109 0023090 114.7283 245.6355 15.14970849147699 JAISAT-1 1 44419U 19038F 22069.45728804 .00007229 00000-0 38352-3 0 9994 2 44419 97.6257 38.9867 0022033 112.4274 247.9295 15.15451483148055 LightSail-2 1 44420U 19036AC 22069.61854350 .00034822 00000-0 59981-2 0 9997 2 44420 24.0041 54.1745 0008387 248.4473 111.5127 14.67161311142614 Taurus 1 1 44530U 19059C 22069.59661696 .00001574 00000-0 44836-3 0 9992 2 44530 98.5436 167.2251 0014454 63.5799 296.6880 14.46590691131553 Duchifat 3 1 44854U 19089C 22069.43391778 .00003396 00000-0 27217-3 0 9996 2 44854 36.9674 327.0094 0006417 141.4366 218.6830 15.00263636123051 OPS-SAT 1 44878U 19092F 22069.78672561 .00007426 00000-0 36573-3 0 9999 2 44878 97.4789 254.7175 0012495 328.7694 31.2796 15.18197093123219 TO-108 1 44881U 19093C 22069.64262674 .00000496 00000-0 69734-4 0 9995 2 44881 97.8993 150.2570 0015828 143.1858 217.0452 14.81588390120142 FloripaSat 1 1 44885U 19093G 22069.56075598 .00001629 00000-0 20808-3 0 9994 2 44885 97.9021 151.2214 0015352 150.6761 209.5322 14.82707124120199 RS-44 1 44909U 19096E 22069.60326022 .00000006 00000-0 -20178-4 0 9990 2 44909 82.5191 295.9651 0217124 190.6029 169.0457 12.79712151102860 Phoenix 1 45258U 98067RB 22069.29356932 .00070998 00000-0 55909-3 0 9996 2 45258 51.6348 69.0858 0004212 123.2834 236.8568 15.70789407116746 BY70-2 1 45857U 20042B 22069.58749658 .00005217 00000-0 72328-3 0 9998 2 45857 97.9617 147.4687 0012011 81.1227 279.1349 14.78338414 90842 UPMSat 2 1 46276U 20061E 22069.80916579 .00003362 00000-0 17202-3 0 9997 2 46276 97.4014 142.9021 0002573 123.4525 236.6955 15.17303439 83913 AmicalSat 1 46287U 20061R 22069.74712445 .00004476 00000-0 26781-3 0 9997 2 46287 97.4563 141.8820 0001361 240.6030 119.5065 15.11535267 83557 SALSAT 1 46495U 20068K 22069.58033620 .00002644 00000-0 19563-3 0 9993 2 46495 97.7205 10.9482 0015494 250.8688 109.0860 15.03971881 79322 BY70-3 1 46839U 20079N 22069.60177115 .00017352 00000-0 47219-3 0 9999 2 46839 97.2094 143.2722 0005666 341.2194 156.8214 15.37565429 75030 SPOC 1 46921U 98067RR 22069.74715923 .00068421 00000-0 61299-3 0 9990 2 46921 51.6369 78.9870 0003927 45.1284 315.0030 15.67674431 76399 Bobcat-1 1 46922U 98067RS 22069.41283521 .00219049 00000-0 96378-3 0 9999 2 46922 51.6341 69.2411 0006239 62.9480 297.2159 15.83364759 76455 Neutron-1 1 46923U 98067RT 22069.52868097 .00064419 00000-0 58139-3 0 9991 2 46923 51.6373 80.5353 0004033 47.7206 312.4132 15.67517964 76393 CAPE 3 1 47309U 21002A 22069.39717161 .00007534 00000-0 33019-3 0 9990 2 47309 60.6856 16.5741 0020235 206.0304 153.9767 15.22719699 63353 AO-109 1 47311U 21002C 22069.55694588 .00006371 00000-0 27542-3 0 9990 2 47311 60.6883 14.0116 0017479 195.5110 164.5444 15.23459538 63385 MiTEE 1 1 47314U 21002F 22069.53599582 .00012684 00000-0 48991-3 0 9994 2 47314 60.6856 9.8086 0019647 182.2056 177.8949 15.26468062 63479 ExoCube 2 1 47319U 21002L 22069.39718247 .00006843 00000-0 29837-3 0 9992 2 47319 60.6859 15.4467 0017842 201.0975 158.9378 15.23055939 63319 UVSQ-SAT 1 47438U 21006AB 22069.67134538 .00004194 00000-0 23204-3 0 9993 2 47438 97.4508 130.7421 0010894 255.5074 104.4949 15.14354257 62320 YUSAT 1 1 47439U 21006AC 22069.79403237 .00005491 00000-0 30098-3 0 9992 2 47439 97.4511 130.9023 0010781 255.2374 104.7663 15.14549897 62344 SOMP 2b 1 47445U 21006AJ 22069.71830049 .00004758 00000-0 26437-3 0 9993 2 47445 97.4479 130.5298 0010542 259.8447 100.1595 15.14131185 62329 IDEASSat 1 47458U 21006AX 22069.75569231 .00003996 00000-0 22365-3 0 9992 2 47458 97.4570 130.9710 0009613 257.4809 102.5347 15.13977651 62327 RSP-01 1 47925U 98067SB 22069.75946020 .00075171 00000-0 71663-3 0 9996 2 47925 51.6382 88.0770 0003633 31.7543 328.3671 15.66098007 56252 TAUSAT-1 1 47926U 98067SC 22069.44577664 .00119681 00000-0 87544-3 0 9997 2 47926 51.6360 85.1940 0004524 30.9852 329.1413 15.72320310 56255 Tsuru 1 47927U 98067SD 22069.30635048 .00057373 00000-0 59568-3 0 9998 2 47927 51.6375 91.7941 0003148 23.4489 336.6649 15.64064397 56165 STARS-EC 1 47928U 98067SE 22069.32551687 .00170545 00000-0 10829-2 0 9990 2 47928 51.6348 85.8811 0008308 45.3496 314.8180 15.75403469 56224 Maya-2 1 47929U 98067SF 22069.75011825 .00062663 00000-0 64928-3 0 9994 2 47929 51.6375 89.5074 0003030 25.5388 334.5756 15.64079398 56196 OPUSAT-II 1 47930U 98067SG 22069.76205116 .00192744 00000-0 11422-2 0 9999 2 47930 51.6327 82.0477 0005505 47.7218 312.4248 15.76929899 56337 GuaraniSat-1 1 47931U 98067SH 22069.29501937 .00058241 00000-0 60290-3 0 9999 2 47931 51.6386 91.7310 0003051 22.4367 337.6761 15.64133607 56166 CubeSX-Sirius-HSE 1 47951U 21022V 22069.63317758 .00002629 00000-0 18103-3 0 9997 2 47951 97.5400 331.2418 0022908 120.1654 330.9554 15.06526251 53117 CubeSX-HSE 1 47952U 21022W 22069.61959139 .00003416 00000-0 23364-3 0 9991 2 47952 97.5395 331.2397 0022810 120.7914 306.5802 15.06573837 53111 KSU-Cubesat 1 47954U 21022Y 22069.45135402 .00003335 00000-0 22725-3 0 9994 2 47954 97.5409 331.1421 0022710 120.8733 239.4732 15.06730988 52819 GRBAlpha 1 47959U 21022AD 22069.62269391 .00003493 00000-0 23876-3 0 9996 2 47959 97.5399 331.2698 0022526 120.7642 326.9207 15.06588681 51934 Orbicraft-Zorkiy 1 47960U 21022AE 22069.60668051 .00004408 00000-0 29933-3 0 9999 2 47960 97.5425 331.3500 0022450 121.5279 333.7830 15.06696084 52622 STECCO 1 47962U 21022AG 22069.73534801 .00006295 00000-0 40988-3 0 9999 2 47962 97.5393 331.9320 0017830 115.2840 329.6559 15.08163966 51984 DO-111 1 47963U 21022AH 22069.46044940 .00010771 00000-0 66161-3 0 9995 2 47963 97.5412 332.1764 0020079 110.9009 249.4372 15.10089810 51991 MO-110 1 47964U 21022AJ 22069.52170723 .00005078 00000-0 32823-3 0 9994 2 47964 97.5399 331.9072 0020851 112.9373 247.4059 15.08477025 51962 FEES 1 48082U 21022AL 22069.53542379 .00007411 00000-0 47811-3 0 9993 2 48082 97.5406 331.7852 0016908 109.7114 250.5940 15.08456162 51662 RamSat 1 48850U 98067SL 22069.48572846 .00034891 00000-0 45918-3 0 9993 2 48850 51.6395 98.2164 0005596 46.4292 313.7165 15.58105027 41845 MO-112 1 48868U 98067SP 22069.42790257 .00164778 00000-0 11553-2 0 9999 2 48868 51.6341 91.0461 0007575 50.6990 309.4680 15.73134551 40717 TUBIN 1 48900U 21059X 22069.60535355 .00003673 00000-0 21148-3 0 9997 2 48900 97.5371 199.8645 0011678 85.1589 44.7740 15.13002114 38966 IT-SPINS 1 49017U 21013G 22069.47180923 .00005908 00000-0 24999-3 0 9999 2 49017 51.6005 152.6699 0009431 73.3641 286.8372 15.24536560 38676 LEDSAT 1 49069U 21073D 22069.72963801 .00002793 00000-0 18537-3 0 9994 2 49069 97.5334 144.5994 0026078 272.5560 87.2683 15.07791905 30952 CUTE 1 49263U 21088D 22069.44108577 .00002893 00000-0 22307-3 0 9997 2 49263 97.6011 139.3614 0022180 46.9973 313.3106 15.02202500 24558 Binar-1 1 49272U 98067SR 22069.44557054 .00038393 00000-0 53144-3 0 9993 2 49272 51.6387 101.6807 0004777 337.3125 22.7655 15.56707770 24185 Maya-3 1 49273U 98067SS 22069.38209128 .00049118 00000-0 63359-3 0 9999 2 49273 51.6388 101.2585 0004777 343.2788 16.8046 15.58484856 24184 Maya-4 1 49274U 98067ST 22069.77329864 .00049960 00000-0 64612-3 0 9991 2 49274 51.6384 99.3710 0004628 344.1538 15.9309 15.58409430 24240 CUAVA-1 1 49275U 98067SU 22069.60669273 .00040268 00000-0 53512-3 0 9994 2 49275 51.6410 100.3072 0004557 343.0471 109.1420 15.57781788 24169 TeikyoSat 4 1 49396U 21102B 22069.79685984 .00000668 00000-0 57576-4 0 9996 2 49396 97.5544 130.8862 0018517 224.8789 135.0938 15.00440872 18253 Z-Sat 1 49399U 21102E 22069.79160403 .00001970 00000-0 15358-3 0 9991 2 49399 97.5468 131.2386 0022278 205.7915 154.2201 15.02144974 18279 KOSEN 1 1 49402U 21102H 22069.78563812 .00002663 00000-0 20087-3 0 9991 2 49402 97.5426 131.2969 0022385 194.1804 165.8796 15.03092074 18284 HO-113 1 50466U 21131B 22069.67781108 .00000079 00000-0 40617-4 0 9994 2 50466 98.5873 146.9588 0005705 89.3383 270.8458 14.38447670 10712 Tevel 1 50999U 22002R 22069.43562146 .00005006 00000-0 28438-3 0 9997 2 50999 97.4917 138.1672 0012503 47.3274 312.9008 15.13299434 8447 Grizu-263a 1 51025U 22002AT 22069.75070789 .00009548 00000-0 52912-3 0 9999 2 51025 97.5088 138.6434 0014227 49.8111 310.4364 15.13925762 8494 NO-116 1 51031U 22002AZ 22069.42141115 .00006496 00000-0 36292-3 0 9994 2 51031 97.5039 138.2837 0014582 50.8593 309.3932 15.13756773 8447 IRIS-A 1 51044U 22002BN 22069.72611101 .00003593 00000-0 20991-3 0 9992 2 51044 97.4936 138.4063 0010546 51.8137 308.4041 15.12487861 8483 DELFI-PQ 1 51074U 22002CU 22069.83679957 .00008041 00000-0 43150-3 0 9995 2 51074 97.5171 138.8956 0015711 78.3394 281.9600 15.15104057 8517 SO-115 1 51080U 22002DA 22069.44433671 .00005586 00000-0 30291-3 0 9993 2 51080 97.5184 138.5079 0015465 79.2963 281.0009 15.14874313 8454 SO-114 1 51081U 22002DB 22069.44487827 .00005743 00000-0 31136-3 0 9990 2 51081 97.5177 138.5013 0015792 79.1754 281.1254 15.14867958 8455 GASPACS 1 51439U 98067TB 22069.49815579 .00087522 00000-0 12148-2 0 9991 2 51439 51.6397 104.2732 0001761 201.3068 158.7851 15.56283505 6718 /EX
